TimeEST,TemperatureF,Dew PointF,Humidity,Sea Level PressureIn,VisibilityMPH,Wind Direction,Wind SpeedMPH,Gust SpeedMPH,PrecipitationIn,Events,Conditions,WindDirDegrees,DateUTC
12:15 AM,44.6,44.6,100,29.96,2.5,Calm,Calm,-,N/A,,Overcast,0,2012-12-05 05:15:00
12:35 AM,44.6,44.6,100,29.95,3.0,Calm,Calm,-,N/A,,Overcast,0,2012-12-05 05:35:00
12:55 AM,44.6,44.6,100,29.94,4.0,Calm,Calm,-,N/A,,Overcast,0,2012-12-05 05:55:00
1:15 AM,46.4,46.4,100,29.94,4.0,Calm,Calm,-,N/A,,Overcast,0,2012-12-05 06:15:00
1:35 AM,48.2,48.2,100,29.93,7.0,SSW,3.5,-,N/A,,Overcast,210,2012-12-05 06:35:00
1:55 AM,51.8,51.8,100,29.93,10.0,Calm,Calm,-,N/A,Rain,Light Rain,0,2012-12-05 06:55:00
2:15 AM,51.8,51.8,100,29.93,10.0,SW,3.5,-,N/A,,Overcast,220,2012-12-05 07:15:00
2:35 AM,53.6,53.6,100,29.92,10.0,SW,3.5,-,N/A,Rain,Rain,220,2012-12-05 07:35:00
2:55 AM,53.6,53.6,100,29.92,10.0,WSW,5.8,-,N/A,,Overcast,240,2012-12-05 07:55:00
3:15 AM,53.6,53.6,100,29.93,10.0,WNW,5.8,-,N/A,,Mostly Cloudy,290,2012-12-05 08:15:00
3:35 AM,53.6,53.6,100,29.94,10.0,WSW,5.8,-,N/A,Rain,Light Rain,250,2012-12-05 08:35:00
3:55 AM,53.6,53.6,100,29.94,10.0,WNW,6.9,-,N/A,Rain,Light Rain,290,2012-12-05 08:55:00
4:15 AM,53.6,50.0,88,29.95,10.0,NNW,11.5,-,N/A,,Light Drizzle,340,2012-12-05 09:15:00
4:35 AM,53.6,48.2,82,29.95,10.0,NW,6.9,-,N/A,,Overcast,320,2012-12-05 09:35:00
4:55 AM,51.8,48.2,88,29.96,10.0,NW,6.9,-,N/A,,Overcast,310,2012-12-05 09:55:00
5:15 AM,51.8,46.4,82,29.95,10.0,NW,8.1,-,N/A,,Overcast,310,2012-12-05 10:15:00
5:35 AM,51.8,46.4,82,29.96,10.0,NW,5.8,-,N/A,,Overcast,310,2012-12-05 10:35:00
6:45 AM,51.8,41.0,67,30.01,10.0,NNW,9.2,15.0,N/A,,Mostly Cloudy,330,2012-12-05 11:45:00
7:45 AM,51.8,41.0,67,30.03,10.0,NNW,8.1,13.8,N/A,,Mostly Cloudy,330,2012-12-05 12:45:00
9:45 AM,50.0,37.4,62,30.06,10.0,NW,11.5,18.4,N/A,,Mostly Cloudy,310,2012-12-05 14:45:00
10:45 AM,51.8,33.8,50,30.05,10.0,NNW,10.4,17.3,N/A,,Mostly Cloudy,330,2012-12-05 15:45:00
11:45 AM,51.8,32.0,47,30.04,10.0,NW,15.0,24.2,N/A,,Scattered Clouds,320,2012-12-05 16:45:00
12:45 PM,53.6,32.0,44,30.03,10.0,NW,11.5,19.6,N/A,,Scattered Clouds,310,2012-12-05 17:45:00
1:45 PM,51.8,30.2,44,30.03,10.0,NW,11.5,20.7,N/A,,Scattered Clouds,320,2012-12-05 18:45:00
2:45 PM,50.0,28.4,43,30.05,10.0,NNW,6.9,21.9,N/A,,Scattered Clouds,330,2012-12-05 19:45:00
3:45 PM,50.0,30.2,47,-9999,-9999.0,NNW,10.4,19.6,N/A,,Mostly Cloudy,330,2012-12-05 20:45:00
4:45 PM,46.4,28.4,50,30.11,10.0,NNW,11.5,24.2,N/A,,Overcast,340,2012-12-05 21:45:00
5:45 PM,41.0,23.0,49,30.17,10.0,North,18.4,29.9,N/A,,Overcast,350,2012-12-05 22:45:00
7:45 PM,39.2,19.4,45,30.21,10.0,NNW,20.7,23.0,N/A,,Scattered Clouds,340,2012-12-06 00:45:00
8:45 PM,37.4,19.4,48,30.21,10.0,NW,13.8,25.3,N/A,,Scattered Clouds,320,2012-12-06 01:45:00
9:45 PM,35.6,17.6,48,30.23,10.0,North,11.5,26.5,N/A,,Scattered Clouds,350,2012-12-06 02:45:00
9:55 PM,33.8,19.4,56,30.23,10.0,NNW,12.7,20.7,N/A,,Clear,340,2012-12-06 02:55:00
10:15 PM,33.8,19.4,56,30.25,10.0,NNW,8.1,18.4,N/A,,Scattered Clouds,330,2012-12-06 03:15:00
10:35 PM,33.8,19.4,56,30.25,10.0,NNW,6.9,19.6,N/A,,Scattered Clouds,330,2012-12-06 03:35:00
10:55 PM,33.8,21.2,60,30.26,10.0,NNW,11.5,21.9,N/A,,Overcast,330,2012-12-06 03:55:00
11:15 PM,33.8,21.2,60,30.25,10.0,North,8.1,-,N/A,,Overcast,350,2012-12-06 04:15:00
11:35 PM,33.8,21.2,60,30.25,10.0,North,10.4,17.3,N/A,,Overcast,350,2012-12-06 04:35:00
11:55 PM,33.8,21.2,60,30.26,10.0,NNW,11.5,18.4,N/A,,Overcast,340,2012-12-06 04:55:00